| time (UTC) | temp C | wind direction | speed KPH | gust KPH | rain 1hr cm | rain 24hr cm | rain mn cm | humidity % | barometer mb |
| 20260505041526 | 15 | 223 | 3.2 | 4.8 | 0.00 | 0.00 | 0.00 | 62 | 1008.1 |
| 20260505041024 | 14 | 235 | 3.2 | 4.8 | 0.00 | 0.00 | 0.00 | 61 | 1008.0 |
| 20260505040521 | 15 | 209 | 3.2 | 3.2 | 0.00 | 0.00 | 0.00 | 62 | 1007.9 |
| 20260505040018 | 14 | 206 | 4.8 | 4.8 | 0.00 | 0.00 | 0.00 | 61 | 1008.0 |
| 20260505035514 | 14 | 214 | 3.2 | 3.2 | 0.00 | 0.00 | 0.00 | 61 | 1007.8 |
| 20260505035011 | 14 | 213 | 3.2 | 4.8 | 0.00 | 0.00 | 0.00 | 61 | 1008.0 |
| 20260505034507 | 14 | 232 | 3.2 | 3.2 | 0.00 | 0.00 | 0.00 | 61 | 1007.9 |
| 20260505034005 | 14 | 223 | 3.2 | 4.8 | 0.00 | 0.00 | 0.00 | 61 | 1007.9 |
| 20260505033501 | 13 | 250 | 4.8 | 4.8 | 0.00 | 0.00 | 0.00 | 63 | 1007.9 |
| 20260505033000 | 13 | 220 | 3.2 | 4.8 | 0.00 | 0.00 | 0.00 | 62 | 1007.8 |
| 20260505032457 | 13 | 198 | 4.8 | 4.8 | 0.00 | 0.00 | 0.00 | 63 | 1007.8 |
| 20260505031953 | 13 | 200 | 3.2 | 4.8 | 0.00 | 0.00 | 0.00 | 64 | 1007.8 |
| 20260505031450 | 13 | 215 | 6.4 | 6.4 | 0.00 | 0.00 | 0.00 | 64 | 1007.8 |
| 20260505030947 | 12 | 275 | 1.6 | 1.6 | 0.00 | 0.00 | 0.00 | 68 | 1007.8 |
| 20260505030443 | 11 | 280 | 1.6 | 1.6 | 0.00 | 0.00 | 0.00 | 75 | 1007.5 |
| 20260505025938 | 10 | 244 | 0.0 | 0.0 | 0.00 | 0.00 | 0.00 | 78 | 1007.8 |
| 20260505025435 | 10 | 61 | 1.6 | 1.6 | 0.00 | 0.00 | 0.00 | 78 | 1007.7 |
| 20260505024934 | 10 | 16 | 0.0 | 0.0 | 0.00 | 0.00 | 0.00 | 77 | 1007.8 |
| 20260505024431 | 10 | 247 | 0.0 | 0.0 | 0.00 | 0.00 | 0.00 | 77 | 1007.8 |
| 20260505023928 | 10 | 313 | 0.0 | 0.0 | 0.00 | 0.00 | 0.00 | 77 | 1007.6 |
| 20260505023425 | 10 | 292 | 0.0 | 0.0 | 0.00 | 0.00 | 0.00 | 78 | 1007.6 |
| 20260505022923 | 10 | 305 | 0.0 | 0.0 | 0.00 | 0.00 | 0.00 | 78 | 1007.7 |
| 20260505022421 | 10 | 294 | 0.0 | 0.0 | 0.00 | 0.00 | 0.00 | 77 | 1007.5 |
| 20260505021917 | 10 | 288 | 0.0 | 0.0 | 0.00 | 0.00 | 0.00 | 78 | 1007.5 |
| 20260505021413 | 10 | 299 | 0.0 | 0.0 | 0.00 | 0.00 | 0.00 | 78 | 1007.5 |
| 20260505020909 | 10 | 240 | 0.0 | 0.0 | 0.00 | 0.00 | 0.00 | 76 | 1007.3 |
| 20260505020405 | 10 | 324 | 0.0 | 0.0 | 0.00 | 0.00 | 0.00 | 76 | 1007.4 |
| 20260505015902 | 10 | 290 | 0.0 | 0.0 | 0.00 | 0.00 | 0.00 | 76 | 1007.2 |
| 20260505015359 | 10 | 294 | 0.0 | 0.0 | 0.00 | 0.00 | 0.00 | 76 | 1007.3 |
| 20260505014856 | 10 | 291 | 0.0 | 0.0 | 0.00 | 0.00 | 0.00 | 75 | 1007.3 |
| 20260505014353 | 10 | 313 | 0.0 | 0.0 | 0.00 | 0.00 | 0.00 | 74 | 1007.2 |
| 20260505013850 | 10 | 286 | 0.0 | 0.0 | 0.00 | 0.00 | 0.00 | 74 | 1007.2 |
| 20260505013347 | 10 | 299 | 0.0 | 0.0 | 0.00 | 0.00 | 0.00 | 73 | 1007.1 |
| 20260505012845 | 11 | 298 | 0.0 | 0.0 | 0.00 | 0.00 | 0.00 | 73 | 1007.0 |
| 20260505012343 | 11 | 296 | 0.0 | 0.0 | 0.00 | 0.00 | 0.00 | 73 | 1007.0 |
| 20260505011839 | 11 | 303 | 0.0 | 0.0 | 0.00 | 0.00 | 0.00 | 71 | 1006.8 |
| 20260505011336 | 11 | 305 | 0.0 | 0.0 | 0.00 | 0.00 | 0.00 | 70 | 1007.0 |
| 20260505010832 | 11 | 309 | 0.0 | 0.0 | 0.00 | 0.00 | 0.00 | 68 | 1006.8 |
| 20260505010327 | 11 | 298 | 0.0 | 0.0 | 0.00 | 0.00 | 0.00 | 70 | 1006.8 |
| 20260505005824 | 11 | 290 | 0.0 | 0.0 | 0.00 | 0.00 | 0.00 | 70 | 1006.8 |
| 20260505005321 | 11 | 296 | 0.0 | 0.0 | 0.00 | 0.00 | 0.00 | 68 | 1006.7 |
| 20260505004819 | 11 | 292 | 0.0 | 0.0 | 0.00 | 0.00 | 0.00 | 67 | 1006.6 |
| 20260505004315 | 12 | 285 | 0.0 | 0.0 | 0.00 | 0.00 | 0.00 | 65 | 1006.5 |
| 20260505003812 | 12 | 291 | 0.0 | 0.0 | 0.00 | 0.00 | 0.00 | 63 | 1006.4 |
| 20260505003309 | 13 | 296 | 0.0 | 0.0 | 0.00 | 0.00 | 0.00 | 63 | 1006.4 |
| 20260505002805 | 13 | 296 | 0.0 | 0.0 | 0.00 | 0.00 | 0.00 | 60 | 1006.3 |
| 20260505002304 | 14 | 285 | 0.0 | 0.0 | 0.00 | 0.00 | 0.00 | 57 | 1006.0 |
| 20260505001801 | 15 | 285 | 0.0 | 0.0 | 0.00 | 0.00 | 0.00 | 55 | 1006.2 |
| 20260505001257 | 15 | 284 | 0.0 | 0.0 | 0.00 | 0.00 | 0.00 | 53 | 1005.9 |
| 20260505000755 | 16 | 274 | 0.0 | 0.0 | 0.00 | 0.00 | 0.00 | 51 | 1006.0 |
| 20260505000252 | 16 | 277 | 0.0 | 0.0 | 0.00 | 0.00 | 0.00 | 49 | 1005.9 |
| 20260504235749 | 17 | 287 | 0.0 | 0.0 | 0.00 | 0.00 | 0.00 | 48 | 1006.2 |
| 20260504235245 | 17 | 274 | 0.0 | 0.0 | 0.00 | 0.00 | 0.00 | 46 | 1005.9 |
| 20260504234742 | 17 | 300 | 3.2 | 3.2 | 0.00 | 0.00 | 0.00 | 45 | 1005.8 |
| 20260504234240 | 17 | 272 | 3.2 | 3.2 | 0.00 | 0.00 | 0.00 | 45 | 1005.7 |
| 20260504233736 | 18 | 287 | 1.6 | 1.6 | 0.00 | 0.00 | 0.00 | 45 | 1005.8 |
| 20260504233232 | 18 | 269 | 1.6 | 1.6 | 0.00 | 0.00 | 0.00 | 44 | 1005.6 |
| 20260504232729 | 18 | 283 | 0.0 | 1.6 | 0.00 | 0.00 | 0.00 | 43 | 1005.6 |
| 20260504232226 | 18 | 264 | 3.2 | 3.2 | 0.00 | 0.00 | 0.00 | 42 | 1005.4 |
| 20260504231723 | 19 | 245 | 3.2 | 3.2 | 0.00 | 0.00 | 0.00 | 42 | 1005.5 |
| 20260504231219 | 19 | 259 | 1.6 | 1.6 | 0.00 | 0.00 | 0.00 | 42 | 1005.2 |
| 20260504230715 | 19 | 196 | 8.0 | 11.3 | 0.00 | 0.00 | 0.00 | 41 | 1005.4 |
| 20260504230214 | 20 | 236 | 3.2 | 3.2 | 0.00 | 0.00 | 0.00 | 40 | 1005.2 |
| 20260504225712 | 20 | 260 | 4.8 | 4.8 | 0.00 | 0.00 | 0.00 | 41 | 1005.0 |
| 20260504225208 | 20 | 264 | 3.2 | 3.2 | 0.00 | 0.00 | 0.00 | 40 | 1005.1 |
| 20260504224705 | 20 | 227 | 4.8 | 4.8 | 0.00 | 0.00 | 0.00 | 40 | 1005.2 |
| 20260504224203 | 20 | 288 | 4.8 | 6.4 | 0.00 | 0.00 | 0.00 | 39 | 1005.1 |
| 20260504223659 | 20 | 218 | 4.8 | 6.4 | 0.00 | 0.00 | 0.00 | 40 | 1005.1 |
| 20260504223154 | 20 | 290 | 8.0 | 9.7 | 0.00 | 0.00 | 0.00 | 40 | 1005.0 |
| 20260504222652 | 20 | 286 | 1.6 | 1.6 | 0.00 | 0.00 | 0.00 | 42 | 1004.9 |
| 20260504222148 | 20 | 300 | 1.6 | 3.2 | 0.00 | 0.00 | 0.00 | 41 | 1005.0 |
| 20260504221646 | 20 | 270 | 1.6 | 1.6 | 0.00 | 0.00 | 0.00 | 41 | 1005.0 |
| 20260504221143 | 20 | 265 | 4.8 | 6.4 | 0.00 | 0.00 | 0.00 | 40 | 1005.1 |
| 20260504220639 | 20 | 203 | 6.4 | 9.7 | 0.00 | 0.00 | 0.00 | 40 | 1005.0 |
| 20260504220137 | 20 | 257 | 9.7 | 12.9 | 0.00 | 0.00 | 0.00 | 39 | 1004.7 |
| 20260504215633 | 20 | 221 | 12.9 | 16.1 | 0.00 | 0.00 | 0.00 | 39 | 1005.0 |
| 20260504215131 | 20 | 212 | 9.7 | 12.9 | 0.00 | 0.00 | 0.00 | 40 | 1004.9 |
| 20260504214626 | 20 | 219 | 6.4 | 9.7 | 0.00 | 0.00 | 0.00 | 39 | 1004.9 |
| 20260504214123 | 20 | 223 | 14.5 | 17.7 | 0.00 | 0.00 | 0.00 | 38 | 1004.9 |
| 20260504213619 | 21 | 221 | 9.7 | 12.9 | 0.00 | 0.00 | 0.00 | 39 | 1004.9 |
| 20260504213116 | 20 | 261 | 9.7 | 16.1 | 0.00 | 0.00 | 0.00 | 40 | 1005.0 |
| 20260504212612 | 20 | 208 | 8.0 | 11.3 | 0.00 | 0.00 | 0.00 | 40 | 1005.0 |
| 20260504212110 | 20 | 247 | 3.2 | 4.8 | 0.00 | 0.00 | 0.00 | 41 | 1005.0 |
| 20260504211607 | 20 | 208 | 6.4 | 9.7 | 0.00 | 0.00 | 0.00 | 41 | 1005.0 |
| 20260504211103 | 20 | 225 | 3.2 | 4.8 | 0.00 | 0.00 | 0.00 | 40 | 1004.8 |
| 20260504210601 | 21 | 211 | 9.7 | 14.5 | 0.00 | 0.00 | 0.00 | 39 | 1005.0 |
| 20260504210057 | 21 | 272 | 4.8 | 6.4 | 0.00 | 0.00 | 0.00 | 39 | 1005.0 |
| 20260504205555 | 21 | 153 | 11.3 | 12.9 | 0.00 | 0.00 | 0.00 | 37 | 1004.9 |
| 20260504205053 | 21 | 257 | 4.8 | 6.4 | 0.00 | 0.00 | 0.00 | 41 | 1004.9 |
| 20260504204550 | 21 | 254 | 4.8 | 9.7 | 0.00 | 0.00 | 0.00 | 40 | 1004.9 |
| 20260504204049 | 21 | 181 | 9.7 | 11.3 | 0.00 | 0.00 | 0.00 | 39 | 1004.9 |
| 20260504203547 | 21 | 329 | 3.2 | 4.8 | 0.00 | 0.00 | 0.00 | 42 | 1004.9 |
| 20260504203044 | 21 | 266 | 9.7 | 11.3 | 0.00 | 0.00 | 0.00 | 40 | 1004.8 |
| 20260504202539 | 20 | 285 | 11.3 | 12.9 | 0.00 | 0.00 | 0.00 | 39 | 1004.8 |
| 20260504202037 | 20 | 271 | 12.9 | 16.1 | 0.00 | 0.00 | 0.00 | 41 | 1004.9 |
| 20260504201534 | 20 | 220 | 8.0 | 11.3 | 0.00 | 0.00 | 0.00 | 41 | 1004.9 |
| 20260504201032 | 20 | 284 | 3.2 | 4.8 | 0.00 | 0.00 | 0.00 | 43 | 1005.0 |
| 20260504200527 | 20 | 248 | 8.0 | 12.9 | 0.00 | 0.00 | 0.00 | 41 | 1004.9 |
| 20260504200025 | 20 | 252 | 6.4 | 6.4 | 0.00 | 0.00 | 0.00 | 42 | 1004.9 |
| 20260504195521 | 20 | 294 | 8.0 | 11.3 | 0.00 | 0.00 | 0.00 | 43 | 1004.9 |
| 20260504195017 | 21 | 266 | 11.3 | 17.7 | 0.00 | 0.00 | 0.00 | 41 | 1005.1 |
| 20260504194514 | 21 | 280 | 8.0 | 11.3 | 0.00 | 0.00 | 0.00 | 41 | 1005.2 |
| 20260504194009 | 20 | 276 | 4.8 | 6.4 | 0.00 | 0.00 | 0.00 | 43 | 1005.1 |
| 20260504193506 | 20 | 210 | 9.7 | 11.3 | 0.00 | 0.00 | 0.00 | 42 | 1005.2 |
| 20260504193005 | 20 | 244 | 11.3 | 20.9 | 0.00 | 0.00 | 0.00 | 42 | 1005.2 |
| 20260504192503 | 21 | 22 | 3.2 | 4.8 | 0.00 | 0.00 | 0.00 | 42 | 1005.0 |
| 20260504192001 | 20 | 251 | 3.2 | 4.8 | 0.00 | 0.00 | 0.00 | 44 | 1005.2 |
| 20260504191458 | 20 | 308 | 20.9 | 27.4 | 0.00 | 0.00 | 0.00 | 41 | 1005.1 |
| 20260504190954 | 20 | 230 | 6.4 | 11.3 | 0.00 | 0.00 | 0.00 | 43 | 1005.0 |
| 20260504190449 | 20 | 302 | 11.3 | 14.5 | 0.00 | 0.00 | 0.00 | 42 | 1005.1 |
| 20260504185946 | 19 | 193 | 6.4 | 6.4 | 0.00 | 0.00 | 0.00 | 44 | 1005.2 |
| 20260504185444 | 18 | 198 | 6.4 | 9.7 | 0.00 | 0.00 | 0.00 | 46 | 1005.3 |
| 20260504184939 | 18 | 235 | 6.4 | 6.4 | 0.00 | 0.00 | 0.00 | 46 | 1005.1 |
| 20260504184436 | 17 | 237 | 3.2 | 3.2 | 0.00 | 0.00 | 0.00 | 46 | 1005.5 |
| 20260504183931 | 17 | 288 | 6.4 | 9.7 | 0.00 | 0.00 | 0.00 | 46 | 1005.4 |
| 20260504183429 | 17 | 283 | 9.7 | 11.3 | 0.00 | 0.00 | 0.00 | 45 | 1005.4 |
| 20260504182927 | 17 | 265 | 9.7 | 11.3 | 0.00 | 0.00 | 0.00 | 46 | 1005.5 |
| 20260504182423 | 17 | 17 | 1.6 | 3.2 | 0.00 | 0.00 | 0.00 | 46 | 1005.7 |
| 20260504181921 | 17 | 292 | 4.8 | 4.8 | 0.00 | 0.00 | 0.00 | 45 | 1005.6 |
| 20260504181418 | 17 | 276 | 9.7 | 14.5 | 0.00 | 0.00 | 0.00 | 43 | 1005.4 |
| 20260504180916 | 17 | 305 | 6.4 | 12.9 | 0.00 | 0.00 | 0.00 | 44 | 1005.3 |
| 20260504180415 | 17 | 226 | 4.8 | 4.8 | 0.00 | 0.00 | 0.00 | 45 | 1005.4 |
| 20260504175913 | 18 | 252 | 3.2 | 6.4 | 0.00 | 0.00 | 0.00 | 43 | 1005.5 |
| 20260504175409 | 18 | 266 | 4.8 | 6.4 | 0.00 | 0.00 | 0.00 | 44 | 1005.7 |
| 20260504174907 | 18 | 283 | 4.8 | 4.8 | 0.00 | 0.00 | 0.00 | 43 | 1005.5 |
| 20260504174404 | 18 | 226 | 8.0 | 11.3 | 0.00 | 0.00 | 0.00 | 42 | 1005.5 |
| 20260504173902 | 18 | 277 | 6.4 | 9.7 | 0.00 | 0.00 | 0.00 | 43 | 1005.4 |
| 20260504173358 | 18 | 298 | 9.7 | 12.9 | 0.00 | 0.00 | 0.00 | 41 | 1005.5 |
| 20260504172855 | 18 | 173 | 11.3 | 17.7 | 0.00 | 0.00 | 0.00 | 41 | 1005.4 |
| 20260504172352 | 18 | 225 | 4.8 | 9.7 | 0.00 | 0.00 | 0.00 | 42 | 1005.7 |
| 20260504171847 | 18 | 266 | 11.3 | 17.7 | 0.00 | 0.00 | 0.00 | 40 | 1005.3 |
| 20260504171345 | 18 | 261 | 11.3 | 14.5 | 0.00 | 0.00 | 0.00 | 41 | 1005.6 |
| 20260504170842 | 19 | 269 | 9.7 | 12.9 | 0.00 | 0.00 | 0.00 | 41 | 1005.2 |
| 20260504170338 | 19 | 294 | 14.5 | 17.7 | 0.00 | 0.00 | 0.00 | 40 | 1005.1 |
| 20260504160257 | 18 | 277 | 12.9 | 16.1 | 0.00 | 0.00 | 0.00 | 46 | 1005.3 |
| 20260504150722 | 16 | 201 | 14.5 | 22.5 | 0.00 | 0.00 | 0.00 | 49 | 1006.3 |
| 20260504150219 | 16 | 257 | 8.0 | 11.3 | 0.00 | 0.00 | 0.00 | 51 | 1006.3 |
| 20260504141148 | 15 | 216 | 6.4 | 9.7 | 0.00 | 0.00 | 0.00 | 58 | 1007.1 |
| 20260504140645 | 14 | 220 | 3.2 | 3.2 | 0.00 | 0.00 | 0.00 | 61 | 1007.3 |
| 20260504140140 | 13 | 234 | 0.0 | 0.0 | 0.00 | 0.00 | 0.00 | 62 | 1007.3 |
| 20260504130609 | 10 | 263 | 1.6 | 1.6 | 0.00 | 0.00 | 0.00 | 71 | 1008.0 |
| 20260504130106 | 10 | 227 | 3.2 | 3.2 | 0.00 | 0.00 | 0.00 | 70 | 1008.3 |
| 20260504110457 | 7 | 281 | 0.0 | 0.0 | 0.00 | 0.00 | 0.00 | 78 | 1008.6 |
| 20260504100419 | 2 | 13 | 0.0 | 0.0 | 0.00 | 0.00 | 0.00 | 90 | 1008.5 |
| 20260504081812 | 0 | 296 | 0.0 | 0.0 | 0.00 | 0.00 | 0.00 | 96 | 1008.5 |
| 20260504081309 | 0 | 45 | 0.0 | 0.0 | 0.00 | 0.00 | 0.00 | 96 | 1008.4 |
| 20260504080805 | 0 | 303 | 0.0 | 0.0 | 0.00 | 0.00 | 0.00 | 95 | 1008.4 |
| 20260504080302 | 0 | 310 | 0.0 | 0.0 | 0.00 | 0.00 | 0.00 | 95 | 1008.4 |
| 20260504070229 | -1 | 329 | 0.0 | 0.0 | 0.00 | 0.00 | 0.00 | 97 | 1008.4 |
| 20260504060150 | -1 | 316 | 0.0 | 0.0 | 0.00 | 0.00 | 0.00 | 97 | 1008.3 |
| 20260504050618 | -1 | 314 | 0.0 | 0.0 | 0.00 | 0.00 | 0.00 | 96 | 1008.3 |
| 20260504050115 | -1 | 307 | 0.0 | 0.0 | 0.00 | 0.00 | 0.00 | 96 | 1008.2 |
| 20260504045612 | -1 | 299 | 0.0 | 0.0 | 0.00 | 0.00 | 0.00 | 96 | 1008.3 |
| 20260504045107 | -1 | 292 | 0.0 | 0.0 | 0.00 | 0.00 | 0.00 | 96 | 1008.3 |
| 20260504044605 | -1 | 300 | 0.0 | 0.0 | 0.00 | 0.00 | 0.00 | 96 | 1008.1 |
| 20260504044102 | -1 | 292 | 0.0 | 0.0 | 0.00 | 0.00 | 0.00 | 96 | 1008.2 |
| 20260504043559 | -1 | 331 | 0.0 | 0.0 | 0.00 | 0.00 | 0.00 | 96 | 1008.1 |
| 20260504043055 | -1 | 331 | 0.0 | 0.0 | 0.00 | 0.00 | 0.00 | 95 | 1008.1 |
| 20260504042553 | -1 | 331 | 0.0 | 0.0 | 0.00 | 0.00 | 0.00 | 95 | 1008.1 |